Temperature
14 13 13 13 13 13 13 12 12 12 12 12 12 12 12 12 12 11 12 11 12 11 11 11 11 11 11 11 11 11 11 11 11 11 11 11 10 10 10 10 10 10 10
13 13 13 13 13 12 12 12 12 12 12 11 12 12 11 11 11 11 11 11 11 11 11 11 11 11 11 11 11 11 11 11 11 11 10 10 10 10 10 10 10 10 10
13 13 12 12 12 12 12 12 12 11 11 11 11 11 11 11 11 11 11 11 10 10 10 10 10 10 11 11 11 11 10 10 10 10 10 10 10 10 9 9 10 10 10
12 12 12 12 12 12 12 11 11 11 11 11 11 11 11 11 11 11 10 10 10 10 10 10 10 10 10 10 10 10 10 10 10 10 10 10 9 9 9 9 9 9 9
12 12 12 11 11 11 11 11 11 11 10 10 10 10 10 10 10 10 10 10 10 10 10 10 10 10 10 10 9 10 10 9 9 9 9 9 9 9 9 9 9 9 9
12 11 11 11 11 11 11 11 10 10 10 10 10 10 10 10 10 10 10 10 10 10 10 9 9 9 9 9 9 9 9 9 9 9 9 9 9 9 8 8 8 8 8
11 11 11 11 10 10 10 10 10 10 9 9 9 9 10 10 9 9 9 9 9 9 9 9 9 9 9 9 9 9 9 9 9 9 9 9 9 8 8 8 8 8 8
11 11 11 10 10 10 10 10 9 9 9 9 9 9 9 9 9 9 9 9 9 9 9 9 9 9 9 9 9 9 9 9 9 8 8 8 8 8 8 8 8 8 8
11 10 10 10 10 10 10 9 9 9 9 9 9 9 9 9 9 9 9 9 9 9 9 9 8 8 8 8 8 8 8 8 8 8 8 8 8 8 8 8 8 7 7
10 10 10 10 9 9 9 9 9 9 8 8 8 8 8 8 8 8 8 8 8 8 8 8 8 8 8 8 8 8 8 8 8 8 8 8 8 8 8 7 7 7 7
10 10 9 9 9 9 9 8 8 8 8 8 8 8 8 8 8 8 8 8 8 8 8 8 8 8 7 7 7 7 7 7 7 7 8 7 7 7 7 7 7 7 7
10 10 9 9 9 8 8 8 8 8 8 8 7 8 8 7 7 7 7 7 7 7 7 7 7 7 7 7 7 7 7 7 7 7 7 7 7 7 7 7 7 6 6
9 9 9 9 9 8 8 8 8 8 7 7 7 7 7 7 7 7 7 7 7 7 7 7 7 7 7 7 7 7 6 6 6 6 7 7 6 6 6 6 6 6 6
9 9 9 8 8 8 8 7 7 7 7 7 7 7 7 7 7 7 7 7 7 7 7 7 6 6 6 6 6 6 6 6 6 6 6 6 6 6 6 6 6 6 6
9 9 8 8 8 8 7 7 7 7 7 7 7 7 7 7 7 6 6 6 6 6 6 6 6 6 6 6 6 6 6 6 5 5 5 5 5 5 5 5 5 5 5
8 8 8 8 8 7 7 7 7 7 7 7 6 6 6 6 6 6 6 6 6 6 6 6 6 6 5 5 5 5 5 5 5 5 5 5 5 5 5 5 5 4 4
8 8 8 8 7 7 7 7 7 7 7 6 6 6 6 6 6 6 6 6 6 5 5 5 5 5 5 5 5 5 5 5 5 5 5 5 4 4 4 4 4 4 4
8 7 7 7 7 7 7 7 6 6 6 6 6 6 6 5 5 5 5 5 5 5 5 5 5 5 5 5 5 4 4 4 4 4 4 4 4 4 4 4 4 3 3
7 7 7 7 7 7 6 6 6 6 6 6 6 6 5 5 5 5 5 5 5 5 5 5 5 5 5 4 4 4 4 4 4 4 4 4 4 4 4 3 3 3 3
7 7 7 6 6 6 6 6 6 6 6 5 5 5 5 5 5 5 5 5 4 4 4 4 4 4 4 4 4 4 4 4 4 4 3 3 3 3 3 3 3 2 2
6 6 6 6 6 6 6 6 6 5 5 5 5 5 5 5 5 4 4 4 4 4 4 4 4 4 4 4 4 4 3 3 3 3 3 3 3 3 2 2 2 2 2
6 6 6 6 5 5 5 5 5 5 5 5 5 5 4 4 4 4 4 4 4 4 4 4 4 4 4 3 3 3 3 3 3 3 2 2 2 2 2 1 1 1 1
5 5 5 5 5 5 5 5 5 5 5 5 4 4 4 4 4 4 4 4 4 3 3 3 3 3 3 3 3 3 3 3 2 2 2 2 2 2 1 1 1 1 1
5 5 5 5 4 4 4 4 4 4 4 4 4 4 4 4 4 3 3 3 3 3 3 3 3 3 3 3 3 2 2 2 2 2 2 2 1 1 1 1 1 0 0
4 4 4 4 4 4 4 4 4 4 4 4 3 3 3 3 3 3 3 3 3 3 3 3 3 3 3 3 2 2 2 2 2 2 1 1 1 1 1 0 0 0 -0
4 4 4 4 4 3 3 3 3 3 3 3 3 3 3 3 3 3 2 2 2 2 2 2 2 2 2 2 2 2 2 2 1 1 1 1 1 1 0 0 -0 -0 -0
Wind_Speed
2 2 1 1 2 1 2 3 4 3 3 3 3 3 2 2 2 2 2 2 1 2 2 2 2 1 1 1 2 2 2 2 2 3 2 1 1 1 1 1 1 2 3
3 2 2 2 2 2 2 3 3 4 4 4 3 3 3 3 3 3 3 2 3 2 3 2 3 2 2 2 2 2 2 3 3 3 2 1 1 1 1 1 1 1 2
3 2 2 2 3 3 3 3 3 3 4 4 4 4 4 4 3 4 4 4 4 4 3 3 4 3 2 2 2 2 2 2 2 3 2 1 1 0 0 1 1 1 1
3 3 3 4 4 4 4 4 4 4 4 4 4 4 4 4 3 3 3 4 3 3 3 4 4 4 4 4 3 3 2 2 2 2 2 2 1 1 1 0 1 1 2
3 3 5 5 4 4 4 4 4 4 4 3 3 3 4 4 4 4 4 3 3 3 3 3 4 3 3 3 2 3 3 3 3 3 3 1 1 1 1 1 1 1 2
4 4 4 4 4 4 4 3 2 3 3 2 3 4 4 4 4 4 4 3 3 3 3 3 3 3 2 2 2 2 4 4 4 4 3 3 4 3 2 2 1 1 1
4 3 4 4 4 4 4 3 3 3 2 2 3 3 3 4 4 4 4 4 3 3 3 2 2 2 2 2 2 2 3 4 5 5 5 6 5 5 3 3 3 2 3
4 4 4 4 5 4 4 4 3 3 3 3 3 3 3 4 3 3 4 4 3 3 3 3 3 3 3 2 3 2 3 3 4 4 6 6 5 5 6 5 4 2 1
4 4 4 4 5 4 5 5 4 3 3 3 4 4 4 5 4 3 3 3 2 2 2 2 2 3 3 2 3 3 2 2 2 2 2 2 2 3 4 3 2 1 1
6 5 4 4 4 5 6 5 4 3 4 4 3 4 5 5 5 4 4 3 2 2 2 2 3 2 2 2 3 3 3 3 1 1 1 1 1 2 4 4 4 3 1
5 4 4 4 4 5 4 4 3 3 3 3 3 3 4 5 5 5 4 4 4 3 3 3 3 3 2 3 2 3 3 2 1 1 1 0 0 1 2 2 3 4 3
4 3 3 3 3 3 3 3 3 3 3 4 3 3 2 3 4 4 5 5 4 4 4 4 4 3 3 3 2 2 1 2 2 1 1 0 0 1 1 2 2 3 3
3 3 3 3 3 3 3 3 2 2 3 4 4 4 3 2 3 4 5 5 5 4 4 4 3 3 3 3 2 2 2 2 2 1 1 1 2 1 1 0 0 0 0
3 3 3 3 3 2 2 3 3 3 4 5 5 4 3 3 3 3 3 3 3 2 2 2 2 2 2 2 2 2 1 2 2 2 2 1 0 0 0 0 0 1 1
3 3 3 3 3 2 2 3 4 4 5 6 5 5 5 5 5 6 4 3 3 3 2 1 1 1 1 1 2 1 1 1 1 1 1 1 1 0 0 1 1 1 0
2 3 3 3 3 3 3 2 3 3 4 4 4 4 4 5 5 5 5 5 4 4 2 2 2 3 3 3 3 2 2 2 2 1 1 1 1 1 0 1 1 0 0
4 4 3 3 3 3 3 3 2 3 2 3 4 4 3 3 4 4 4 3 3 4 3 3 3 3 4 4 4 3 3 2 2 2 2 2 1 1 1 0 0 0 1
3 4 3 3 3 3 4 3 3 3 2 2 2 3 3 3 4 4 4 2 2 3 3 4 4 4 4 4 4 3 3 2 2 2 2 2 2 1 1 1 1 1 1
3 3 3 3 2 2 3 3 3 3 2 2 2 2 3 3 3 3 3 3 4 4 4 4 4 4 4 3 3 3 3 3 3 2 2 2 2 1 1 1 1 1 1
3 4 3 2 2 2 2 3 2 3 3 3 3 3 2 2 2 2 2 3 4 4 4 4 4 4 4 3 3 3 3 3 3 2 2 2 2 2 2 2 2 2 2
3 3 3 2 2 2 3 3 3 3 3 3 3 3 4 3 4 4 4 4 4 4 4 4 4 4 4 3 3 4 4 4 3 3 2 2 2 2 1 2 2 1 1
2 2 2 2 2 2 2 3 3 3 3 3 2 2 3 2 3 3 3 3 3 3 3 3 3 3 4 4 4 4 4 4 4 3 3 3 2 2 2 2 2 1 1
2 2 2 2 2 2 2 2 2 3 3 2 2 2 2 2 2 3 3 3 2 2 2 3 2 2 2 3 4 4 5 5 5 5 4 3 3 2 2 2 2 2 2
2 2 2 2 2 2 2 3 3 3 3 2 2 3 3 3 3 3 3 2 2 2 2 3 3 4 4 3 3 3 4 4 4 5 6 5 4 3 2 2 2 2 2
2 3 3 3 3 3 3 3 2 3 3 3 3 3 3 3 3 3 2 2 2 2 2 3 3 4 5 4 4 3 4 4 4 4 4 4 4 4 3 3 2 2 1
3 3 3 3 3 3 3 3 3 3 3 3 3 3 3 3 3 3 2 2 2 2 2 3 3 4 4 4 4 5 5 5 5 5 4 4 3 3 3 3 3 2 2
Wind_Direction
183 182 182 215 231 229 216 220 218 217 213 215 228 224 219 234 235 213 229 214 208 230 219 202 230 226 216 223 192 175 176 163 205 266 268 258 247 275 349 354 219 209 218
193 192 205 223 234 228 239 237 227 226 227 222 224 218 224 237 232 213 218 216 216 227 234 219 231 220 218 224 200 197 197 189 185 221 264 260 247 232 239 287 322 248 237
197 205 221 234 241 240 241 243 233 228 236 235 220 216 223 230 230 213 202 211 219 222 229 223 226 207 217 229 213 209 208 196 178 180 223 246 259 254 31 354 342 335 300
209 210 221 233 236 240 241 239 239 232 232 233 223 223 220 219 217 210 203 206 214 226 234 231 220 207 206 210 213 213 197 178 168 171 197 209 237 280 106 74 349 333 313
216 221 230 236 240 240 238 239 243 237 234 230 226 228 223 217 218 206 201 203 209 233 244 242 228 213 212 209 218 208 188 182 178 184 198 201 222 204 219 215 223 298 313
218 231 242 239 241 238 232 228 237 242 238 227 230 230 231 238 228 199 189 194 200 212 241 253 246 212 224 224 251 213 195 194 194 193 205 209 221 219 217 201 193 184 278
224 239 244 235 235 236 234 221 220 234 235 237 241 231 235 245 228 198 187 183 192 205 219 234 255 251 226 211 252 254 236 228 207 199 203 215 212 210 193 198 210 210 227
230 238 243 241 240 237 225 221 223 228 223 226 242 237 235 251 236 197 185 183 190 206 212 223 232 241 235 204 211 230 244 241 230 212 208 219 216 204 196 198 204 213 258
235 236 242 237 235 231 229 227 228 223 228 230 224 225 228 246 232 205 186 190 194 215 230 236 227 216 247 222 190 217 252 274 256 238 242 235 221 199 172 143 148 152 273
234 236 238 230 225 227 228 229 230 226 228 227 235 224 223 231 233 217 193 185 194 220 242 246 251 233 233 189 179 194 231 254 245 279 340 346 199 184 173 175 181 183 203
234 233 232 227 230 230 224 226 224 223 218 213 221 230 223 222 227 216 207 196 198 206 219 234 241 250 229 208 191 194 218 200 187 187 186 178 147 182 198 197 188 183 192
222 222 231 237 242 236 211 225 221 211 206 206 210 227 233 227 228 222 218 218 209 202 216 225 230 235 232 211 203 210 196 136 135 138 126 167 204 232 227 220 209 203 206
227 227 231 237 238 216 202 212 225 217 208 212 208 213 232 234 238 241 227 224 219 213 220 223 223 220 226 216 211 184 148 139 143 151 186 230 243 238 220 146 51 142 342
223 231 227 219 232 235 212 204 209 222 220 211 209 212 221 226 225 223 223 220 212 213 222 223 218 205 211 220 202 191 174 175 173 193 208 219 273 40 46 93 102 82 43
234 234 230 224 222 229 231 232 229 225 218 209 211 206 211 226 231 222 213 213 209 208 189 161 172 190 203 205 193 194 195 187 191 178 165 157 141 101 4 39 67 76 97
238 242 234 226 228 225 219 267 286 263 255 234 220 211 223 230 225 216 219 221 219 200 171 186 208 209 208 204 202 204 212 213 209 182 168 171 177 174 26 20 41 66 301
233 241 241 233 228 222 211 205 246 309 305 249 236 229 226 223 212 208 209 209 207 187 189 204 215 222 216 206 201 203 212 213 200 185 182 184 178 167 164 178 53 356 322
242 245 243 229 230 226 214 211 209 216 243 256 256 238 224 214 209 214 211 186 200 196 198 206 216 223 217 206 200 201 201 189 184 189 187 187 186 174 172 213 224 243 276
240 242 239 232 230 228 214 208 215 221 229 227 240 240 228 215 214 220 194 189 203 209 210 212 216 214 211 206 204 201 193 189 189 190 194 195 195 185 205 231 236 241 263
246 257 258 237 223 223 209 202 210 214 223 221 222 227 212 182 198 219 211 208 215 216 215 217 217 209 202 201 200 195 185 183 185 191 200 201 200 199 209 220 224 235 250
246 252 259 249 225 224 218 212 215 215 219 225 229 229 207 197 207 213 217 216 216 220 218 213 207 200 196 193 194 191 189 193 194 194 198 204 206 205 206 208 219 232 250
235 243 240 237 238 230 229 217 214 218 222 226 235 227 213 201 206 213 219 224 223 219 212 204 204 201 196 192 193 194 196 199 198 195 196 202 207 206 200 204 210 213 214
229 236 244 249 244 249 250 232 223 222 224 227 220 203 200 207 213 219 225 225 219 213 198 188 190 200 194 197 194 194 199 203 201 194 191 196 202 201 196 203 205 208 221
230 228 236 245 242 231 240 237 230 229 230 231 222 208 208 213 215 219 223 223 219 212 200 193 189 189 185 187 193 203 207 203 194 189 184 189 194 195 197 199 201 209 219
232 234 239 243 244 239 244 242 238 238 234 228 220 215 213 215 221 223 221 216 207 209 205 196 190 188 185 186 191 196 190 176 171 171 170 177 183 187 194 197 199 202 221
237 236 239 243 244 238 239 237 232 231 231 230 227 221 215 215 219 223 221 212 206 205 204 197 192 188 185 191 190 181 174 169 166 164 159 160 172 183 187 191 195 199 202
Height
1511 1511 1511 1511 1511 1511 1511 1510 1510 1510 1510 1509 1509 1509 1509 1509 1509 1509 1509 1510 1510 1510 1510 1511 1511 1511 1512 1512 1512 1512 1512 1512 1511 1510 1510 1510 1509 1509 1508 1508 1507 1507 1507
1508 1508 1508 1508 1508 1508 1507 1507 1507 1507 1507 1506 1506 1506 1506 1506 1506 1506 1506 1506 1506 1507 1507 1507 1508 1508 1508 1508 1509 1509 1509 1509 1509 1507 1507 1507 1507 1506 1506 1505 1505 1504 1505
1505 1505 1505 1505 1505 1504 1504 1504 1503 1503 1503 1503 1503 1502 1503 1503 1503 1503 1503 1503 1503 1503 1504 1504 1504 1505 1505 1505 1505 1505 1506 1506 1505 1505 1504 1504 1504 1504 1503 1503 1502 1502 1502
1502 1502 1502 1501 1501 1501 1500 1500 1500 1500 1499 1499 1499 1499 1499 1499 1500 1499 1500 1500 1500 1500 1500 1501 1501 1501 1501 1501 1501 1502 1502 1502 1502 1502 1501 1501 1501 1501 1500 1500 1499 1500 1500
1498 1498 1498 1498 1497 1497 1496 1496 1496 1496 1495 1495 1495 1495 1495 1495 1496 1496 1496 1497 1497 1497 1497 1497 1497 1498 1498 1498 1498 1498 1498 1498 1498 1498 1498 1497 1497 1497 1497 1497 1497 1497 1497
1495 1494 1494 1494 1493 1493 1492 1492 1492 1492 1492 1492 1491 1491 1492 1492 1492 1493 1493 1493 1493 1493 1493 1493 1494 1494 1494 1494 1495 1495 1495 1495 1494 1494 1494 1494 1493 1494 1494 1494 1494 1494 1493
1491 1490 1490 1489 1489 1488 1488 1488 1488 1488 1488 1488 1487 1487 1488 1488 1489 1489 1489 1490 1490 1490 1490 1490 1490 1490 1490 1490 1491 1491 1491 1491 1491 1491 1490 1490 1490 1490 1490 1490 1491 1491 1491
1487 1486 1486 1485 1484 1484 1484 1484 1484 1484 1483 1483 1483 1484 1484 1484 1485 1485 1486 1486 1486 1486 1486 1486 1487 1487 1487 1487 1487 1487 1487 1487 1487 1487 1487 1487 1487 1487 1488 1488 1487 1488 1488
1482 1482 1481 1480 1480 1480 1479 1479 1479 1479 1479 1479 1479 1479 1480 1480 1481 1481 1482 1482 1483 1483 1483 1483 1483 1483 1484 1484 1483 1483 1483 1483 1483 1483 1484 1484 1484 1484 1484 1484 1484 1484 1484
1479 1478 1477 1476 1475 1475 1475 1475 1474 1474 1474 1474 1474 1475 1476 1476 1477 1477 1478 1479 1479 1479 1479 1479 1480 1480 1480 1480 1480 1480 1479 1479 1479 1479 1480 1480 1480 1480 1481 1481 1481 1481 1481
1475 1474 1473 1472 1471 1471 1470 1470 1470 1469 1469 1469 1470 1471 1471 1472 1472 1473 1474 1475 1475 1475 1475 1475 1476 1476 1477 1476 1476 1476 1476 1476 1476 1476 1476 1476 1476 1476 1476 1477 1477 1478 1478
1471 1470 1469 1468 1467 1466 1466 1465 1465 1465 1464 1465 1465 1466 1467 1468 1468 1469 1470 1471 1472 1472 1471 1472 1472 1472 1473 1473 1473 1473 1473 1473 1473 1472 1472 1472 1472 1473 1473 1473 1474 1475 1475
1468 1467 1465 1465 1464 1463 1462 1461 1460 1460 1460 1460 1461 1462 1462 1463 1464 1465 1466 1467 1467 1468 1468 1468 1468 1469 1469 1469 1469 1470 1470 1470 1469 1469 1469 1469 1469 1470 1470 1470 1470 1471 1472
1464 1463 1462 1461 1460 1459 1458 1458 1457 1456 1456 1457 1457 1458 1458 1459 1460 1461 1462 1462 1463 1463 1464 1464 1464 1465 1465 1465 1465 1466 1466 1466 1466 1466 1466 1466 1467 1467 1467 1467 1467 1467 1467
1460 1459 1458 1457 1456 1455 1455 1454 1453 1453 1453 1453 1453 1454 1455 1455 1456 1458 1458 1458 1459 1459 1459 1460 1460 1460 1460 1461 1461 1462 1462 1463 1463 1463 1463 1464 1464 1464 1464 1464 1464 1464 1464
1456 1455 1454 1453 1452 1451 1451 1450 1450 1450 1450 1450 1451 1451 1452 1453 1453 1454 1455 1455 1455 1456 1456 1455 1455 1456 1456 1456 1457 1458 1458 1459 1460 1460 1460 1461 1461 1461 1461 1462 1462 1462 1461
1452 1451 1450 1449 1449 1448 1447 1446 1446 1446 1447 1447 1448 1448 1448 1449 1449 1450 1450 1451 1451 1452 1451 1451 1451 1451 1452 1452 1453 1454 1455 1456 1457 1457 1457 1458 1458 1458 1459 1459 1459 1459 1459
1449 1448 1447 1446 1445 1444 1444 1444 1443 1443 1443 1443 1444 1445 1445 1445 1446 1446 1447 1447 1447 1447 1447 1447 1447 1448 1448 1448 1449 1450 1451 1452 1453 1453 1454 1455 1455 1456 1456 1456 1456 1456 1456
1445 1444 1443 1442 1441 1441 1441 1441 1440 1440 1440 1440 1440 1441 1441 1442 1442 1442 1442 1442 1442 1442 1443 1443 1443 1444 1444 1444 1445 1446 1447 1448 1449 1450 1451 1452 1452 1453 1453 1453 1453 1454 1454
1441 1440 1440 1439 1438 1437 1437 1437 1437 1437 1437 1437 1437 1437 1438 1438 1438 1438 1438 1438 1438 1439 1439 1439 1439 1440 1440 1441 1442 1442 1443 1444 1445 1446 1447 1448 1449 1450 1450 1450 1450 1450 1450
1438 1437 1436 1435 1434 1434 1434 1434 1433 1433 1433 1433 1434 1434 1435 1434 1434 1434 1434 1434 1435 1435 1435 1435 1436 1436 1436 1437 1438 1439 1439 1440 1441 1442 1443 1444 1445 1446 1447 1447 1447 1447 1447
1434 1433 1432 1431 1431 1430 1430 1430 1430 1430 1430 1430 1430 1431 1431 1431 1430 1430 1430 1430 1431 1431 1431 1431 1432 1432 1433 1433 1434 1435 1435 1436 1437 1439 1440 1441 1442 1443 1444 1444 1444 1444 1444
1430 1430 1429 1428 1428 1427 1427 1426 1426 1426 1426 1426 1427 1427 1427 1427 1427 1427 1427 1427 1427 1428 1428 1428 1429 1429 1430 1430 1431 1431 1432 1433 1434 1435 1436 1437 1438 1439 1440 1440 1441 1441 1441
1426 1426 1425 1425 1424 1424 1423 1423 1423 1422 1422 1423 1423 1423 1423 1423 1424 1424 1424 1424 1424 1425 1425 1425 1426 1426 1427 1427 1428 1428 1429 1430 1431 1432 1433 1434 1435 1436 1436 1437 1438 1438 1438
1422 1422 1421 1421 1420 1420 1419 1419 1419 1419 1419 1419 1419 1419 1420 1420 1420 1421 1421 1421 1421 1421 1422 1422 1423 1423 1424 1424 1424 1425 1426 1427 1428 1429 1430 1431 1431 1432 1433 1434 1435 1435 1435
1418 1418 1417 1417 1416 1416 1416 1415 1415 1415 1415 1415 1415 1415 1416 1416 1416 1417 1417 1417 1418 1418 1418 1419 1419 1420 1420 1421 1421 1422 1423 1424 1425 1426 1427 1427 1428 1429 1430 1431 1431 1432 1432